| time (UTC) | temp F | wind direction | speed MPH | gust MPH | rain 1hr in | rain 24hr in | rain mn in | humidity % | barometer mb |
| 20260901132038 | 59 | 45 | 1.0 | 3.0 | 0.27 | 0.35 | 0.35 | 91 | 1018.7 |
| 20260901131538 | 59 | 46 | 1.0 | 4.0 | 0.28 | 0.33 | 0.33 | 91 | 1018.9 |
| 20260901131039 | 60 | 45 | 0.0 | 3.0 | 0.30 | 0.31 | 0.31 | 91 | 1018.9 |
| 20260901130537 | 60 | 44 | 0.0 | 3.0 | 0.30 | 0.30 | 0.30 | 90 | 1018.9 |
| 20260901130036 | 60 | 44 | 0.0 | 4.0 | 0.28 | 0.28 | 0.28 | 90 | 1018.9 |
| 20260901125538 | 60 | 43 | 1.0 | 4.0 | 0.25 | 0.25 | 0.25 | 90 | 1018.9 |
| 20260901125035 | 60 | 43 | 0.0 | 3.0 | 0.21 | 0.21 | 0.21 | 90 | 1019.0 |
| 20260901124535 | 61 | 50 | 0.0 | 3.0 | 0.19 | 0.19 | 0.19 | 90 | 1019.0 |
| 20260901124032 | 61 | 50 | 0.0 | 3.0 | 0.16 | 0.16 | 0.16 | 90 | 1019.0 |
| 20260901123531 | 61 | 50 | 0.0 | 6.0 | 0.14 | 0.14 | 0.14 | 89 | 1019.0 |
| 20260901123031 | 62 | 50 | 1.0 | 6.0 | 0.12 | 0.12 | 0.12 | 89 | 1019.1 |
| 20260901122530 | 62 | 94 | 0.0 | 2.0 | 0.10 | 0.10 | 0.10 | 89 | 1019.1 |
| 20260901122029 | 62 | 94 | 0.0 | 2.0 | 0.08 | 0.08 | 0.08 | 89 | 1019.0 |
| 20260901121535 | 62 | 95 | 1.0 | 2.0 | 0.04 | 0.04 | 0.04 | 88 | 1018.9 |
| 20260901121028 | 62 | 95 | 0.0 | 1.0 | 0.01 | 0.01 | 0.01 | 88 | 1018.9 |
| 20260901120527 | 62 | 95 | 0.0 | 1.0 | 0.00 | 0.00 | 0.00 | 88 | 1018.9 |
| 20260901120038 | 62 | 93 | 0.0 | 1.0 | 0.00 | 0.00 | 0.00 | 88 | 1018.6 |
| 20260901115529 | 62 | 95 | 0.0 | 2.0 | 0.00 | 0.00 | 0.00 | 88 | 1018.6 |
| 20260901115026 | 62 | 94 | 0.0 | 3.0 | 0.00 | 0.00 | 0.00 | 88 | 1018.6 |
| 20260901114525 | 62 | 94 | 2.0 | 3.0 | 0.00 | 0.00 | 0.00 | 87 | 1018.6 |
| 20260901114026 | 62 | 94 | 0.0 | 4.0 | 0.00 | 0.00 | 0.00 | 87 | 1018.6 |
| 20260901113524 | 62 | 94 | 2.0 | 4.0 | 0.00 | 0.00 | 0.00 | 87 | 1018.5 |
| 20260901113023 | 62 | 188 | 1.0 | 2.0 | 0.00 | 0.00 | 0.00 | 88 | 1018.5 |
| 20260901112522 | 62 | 191 | 0.0 | 0.0 | 0.00 | 0.00 | 0.00 | 88 | 1018.5 |
| 20260901112022 | 62 | 191 | 0.0 | 2.0 | 0.00 | 0.00 | 0.00 | 87 | 1018.4 |
| 20260901111522 | 63 | 191 | 0.0 | 2.0 | 0.00 | 0.00 | 0.00 | 87 | 1018.4 |
| 20260901111020 | 63 | 193 | 0.0 | 1.0 | 0.00 | 0.00 | 0.00 | 87 | 1018.4 |
| 20260901110520 | 63 | 193 | 0.0 | 1.0 | 0.00 | 0.00 | 0.00 | 87 | 1018.4 |
| 20260901110023 | 63 | 193 | 0.0 | 0.0 | 0.00 | 0.00 | 0.00 | 87 | 1018.3 |
| 20260901105520 | 63 | 193 | 0.0 | 0.0 | 0.00 | 0.00 | 0.00 | 88 | 1018.4 |
| 20260901105019 | 63 | 193 | 0.0 | 0.0 | 0.00 | 0.00 | 0.00 | 88 | 1018.3 |
| 20260901104522 | 63 | 193 | 0.0 | 1.0 | 0.00 | 0.00 | 0.00 | 88 | 1018.2 |
| 20260901104018 | 63 | 193 | 0.0 | 2.0 | 0.00 | 0.00 | 0.00 | 88 | 1018.1 |
| 20260901103518 | 63 | 193 | 0.0 | 3.0 | 0.00 | 0.00 | 0.00 | 88 | 1018.1 |
| 20260901103017 | 64 | 193 | 0.0 | 3.0 | 0.00 | 0.00 | 0.00 | 88 | 1018.1 |
| 20260901102518 | 64 | 202 | 0.0 | 0.0 | 0.00 | 0.00 | 0.00 | 88 | 1017.9 |
| 20260901102019 | 64 | 202 | 0.0 | 0.0 | 0.00 | 0.00 | 0.00 | 88 | 1017.9 |
| 20260901101518 | 64 | 203 | 0.0 | 0.0 | 0.00 | 0.00 | 0.00 | 88 | 1017.7 |
| 20260901101017 | 64 | 202 | 0.0 | 0.0 | 0.00 | 0.00 | 0.00 | 88 | 1017.6 |
| 20260901100520 | 64 | 203 | 0.0 | 0.0 | 0.00 | 0.00 | 0.00 | 88 | 1017.6 |
| 20260901100017 | 64 | 203 | 0.0 | 0.0 | 0.00 | 0.00 | 0.00 | 88 | 1017.6 |
| 20260901095517 | 64 | 202 | 0.0 | 0.0 | 0.00 | 0.00 | 0.00 | 88 | 1017.5 |
| 20260901095020 | 64 | 203 | 0.0 | 0.0 | 0.00 | 0.00 | 0.00 | 88 | 1017.4 |
| 20260901094520 | 64 | 203 | 0.0 | 0.0 | 0.00 | 0.00 | 0.00 | 88 | 1017.4 |
| 20260901094017 | 64 | 203 | 0.0 | 0.0 | 0.00 | 0.00 | 0.00 | 88 | 1017.4 |
| 20260901093519 | 64 | 203 | 0.0 | 0.0 | 0.00 | 0.00 | 0.00 | 88 | 1017.4 |
| 20260901093016 | 64 | 202 | 0.0 | 0.0 | 0.00 | 0.00 | 0.00 | 87 | 1017.3 |
| 20260901092516 | 64 | 203 | 0.0 | 0.0 | 0.00 | 0.00 | 0.00 | 87 | 1017.4 |
| 20260901092018 | 65 | 203 | 0.0 | 0.0 | 0.00 | 0.00 | 0.00 | 88 | 1017.4 |
| 20260901091516 | 65 | 202 | 0.0 | 0.0 | 0.00 | 0.00 | 0.00 | 88 | 1017.4 |
| 20260901091017 | 65 | 202 | 0.0 | 0.0 | 0.00 | 0.00 | 0.00 | 88 | 1017.4 |
| 20260901090518 | 65 | 202 | 0.0 | 0.0 | 0.00 | 0.00 | 0.00 | 88 | 1017.4 |
| 20260901090015 | 65 | 203 | 0.0 | 0.0 | 0.00 | 0.00 | 0.00 | 87 | 1017.4 |
| 20260901085516 | 65 | 202 | 0.0 | 0.0 | 0.00 | 0.00 | 0.00 | 87 | 1017.3 |
| 20260901085014 | 65 | 203 | 0.0 | 0.0 | 0.00 | 0.00 | 0.00 | 87 | 1017.4 |
| 20260901084514 | 65 | 202 | 0.0 | 0.0 | 0.00 | 0.00 | 0.00 | 87 | 1017.4 |
| 20260901084016 | 65 | 202 | 0.0 | 0.0 | 0.00 | 0.00 | 0.00 | 87 | 1017.4 |
| 20260901083513 | 65 | 203 | 0.0 | 0.0 | 0.00 | 0.00 | 0.00 | 87 | 1017.3 |
| 20260901083022 | 65 | 202 | 0.0 | 0.0 | 0.00 | 0.00 | 0.00 | 87 | 1017.1 |
| 20260901082513 | 65 | 203 | 0.0 | 0.0 | 0.00 | 0.00 | 0.00 | 87 | 1017.3 |
| 20260901082012 | 65 | 202 | 0.0 | 0.0 | 0.00 | 0.00 | 0.00 | 87 | 1017.4 |
| 20260901081516 | 65 | 203 | 0.0 | 0.0 | 0.00 | 0.00 | 0.00 | 87 | 1017.4 |
| 20260901081011 | 65 | 202 | 0.0 | 0.0 | 0.00 | 0.00 | 0.00 | 87 | 1017.4 |
| 20260901080511 | 65 | 203 | 0.0 | 1.0 | 0.00 | 0.00 | 0.00 | 87 | 1017.3 |
| 20260901080011 | 65 | 203 | 0.0 | 1.0 | 0.00 | 0.00 | 0.00 | 87 | 1017.5 |
| 20260901075510 | 65 | 202 | 0.0 | 1.0 | 0.00 | 0.00 | 0.00 | 87 | 1017.5 |
| 20260901075009 | 65 | 202 | 0.0 | 2.0 | 0.00 | 0.00 | 0.00 | 88 | 1017.5 |
| 20260901074510 | 65 | 202 | 0.0 | 3.0 | 0.00 | 0.00 | 0.00 | 88 | 1017.6 |
| 20260901074008 | 65 | 203 | 0.0 | 3.0 | 0.00 | 0.00 | 0.00 | 88 | 1017.8 |
| 20260901073508 | 65 | 203 | 0.0 | 2.0 | 0.00 | 0.00 | 0.00 | 88 | 1017.7 |
| 20260901073008 | 65 | 203 | 0.0 | 2.0 | 0.00 | 0.00 | 0.00 | 88 | 1017.7 |
| 20260901072508 | 65 | 202 | 0.0 | 2.0 | 0.00 | 0.00 | 0.00 | 88 | 1017.6 |
| 20260901072007 | 65 | 202 | 0.0 | 3.0 | 0.00 | 0.00 | 0.00 | 88 | 1017.7 |
| 20260901071508 | 64 | 201 | 0.0 | 3.0 | 0.00 | 0.00 | 0.00 | 88 | 1017.7 |
| 20260901071008 | 64 | 202 | 0.0 | 2.0 | 0.00 | 0.00 | 0.00 | 88 | 1017.7 |
| 20260901070507 | 64 | 203 | 0.0 | 3.0 | 0.00 | 0.00 | 0.00 | 89 | 1017.8 |
| 20260901070012 | 64 | 203 | 0.0 | 3.0 | 0.00 | 0.00 | 0.00 | 89 | 1017.9 |
| 20260901065505 | 64 | 203 | 0.0 | 1.0 | 0.00 | 0.00 | 0.00 | 89 | 1017.9 |
| 20260901065008 | 65 | 202 | 0.0 | 1.0 | 0.00 | 0.00 | 0.00 | 89 | 1017.9 |
| 20260901064507 | 64 | 202 | 0.0 | 1.0 | 0.00 | 0.00 | 0.00 | 89 | 1018.0 |
| 20260901064004 | 64 | 202 | 0.0 | 3.0 | 0.00 | 0.00 | 0.00 | 89 | 1017.9 |
| 20260901063504 | 64 | 202 | 0.0 | 3.0 | 0.00 | 0.00 | 0.00 | 89 | 1017.9 |
| 20260901063006 | 64 | 201 | 0.0 | 2.0 | 0.00 | 0.00 | 0.00 | 89 | 1017.9 |
| 20260901062503 | 64 | 203 | 0.0 | 3.0 | 0.00 | 0.00 | 0.00 | 89 | 1017.9 |
| 20260901062003 | 64 | 203 | 0.0 | 3.0 | 0.00 | 0.00 | 0.00 | 89 | 1017.9 |
| 20260901061503 | 64 | 203 | 0.0 | 1.0 | 0.00 | 0.00 | 0.00 | 89 | 1017.9 |
| 20260901061002 | 64 | 203 | 0.0 | 2.0 | 0.00 | 0.00 | 0.00 | 89 | 1017.9 |
| 20260901060501 | 64 | 202 | 0.0 | 2.0 | 0.00 | 0.00 | 0.00 | 89 | 1018.0 |
| 20260901060001 | 64 | 203 | 0.0 | 1.0 | 0.00 | 0.00 | 0.00 | 89 | 1018.0 |
| 20260901055501 | 64 | 202 | 0.0 | 2.0 | 0.00 | 0.00 | 0.00 | 89 | 1017.9 |
| 20260901055100 | 64 | 202 | 0.0 | 3.0 | 0.00 | 0.00 | 0.00 | 89 | 1018.1 |
| 20260901054600 | 64 | 203 | 1.0 | 3.0 | 0.00 | 0.00 | 0.00 | 90 | 1017.9 |
| 20260901054100 | 64 | 203 | 0.0 | 2.0 | 0.00 | 0.00 | 0.00 | 90 | 1017.9 |
| 20260901053603 | 64 | 202 | 0.0 | 4.0 | 0.00 | 0.00 | 0.00 | 90 | 1018.0 |
| 20260901053100 | 64 | 202 | 0.0 | 4.0 | 0.00 | 0.00 | 0.00 | 90 | 1018.1 |
| 20260901052558 | 63 | 202 | 1.0 | 4.0 | 0.00 | 0.00 | 0.00 | 90 | 1018.0 |
| 20260901052058 | 63 | 203 | 0.0 | 2.0 | 0.00 | 0.00 | 0.00 | 89 | 1018.1 |
| 20260901051607 | 63 | 203 | 0.0 | 3.0 | 0.00 | 0.00 | 0.00 | 89 | 1018.1 |
| 20260901051058 | 63 | 202 | 0.0 | 4.0 | 0.00 | 0.00 | 0.00 | 89 | 1017.9 |
| 20260901050558 | 63 | 203 | 1.0 | 4.0 | 0.00 | 0.00 | 0.00 | 89 | 1017.9 |
| 20260901050058 | 63 | 196 | 1.0 | 3.0 | 0.00 | 0.00 | 0.00 | 89 | 1017.9 |
| 20260901045556 | 63 | 196 | 0.0 | 3.0 | 0.00 | 0.00 | 0.00 | 89 | 1018.0 |
| 20260901045056 | 63 | 120 | 1.0 | 3.0 | 0.00 | 0.00 | 0.00 | 88 | 1018.0 |
| 20260901044554 | 63 | 120 | 0.0 | 3.0 | 0.00 | 0.00 | 0.00 | 88 | 1018.1 |
| 20260901044055 | 63 | 120 | 0.0 | 2.0 | 0.00 | 0.00 | 0.00 | 88 | 1018.1 |
| 20260901043553 | 63 | 121 | 0.0 | 0.0 | 0.00 | 0.00 | 0.00 | 88 | 1018.1 |
| 20260901043053 | 63 | 121 | 0.0 | 0.0 | 0.00 | 0.00 | 0.00 | 88 | 1018.2 |
| 20260901042551 | 64 | 121 | 0.0 | 0.0 | 0.00 | 0.00 | 0.00 | 88 | 1018.1 |
| 20260901042051 | 64 | 120 | 0.0 | 0.0 | 0.00 | 0.00 | 0.00 | 88 | 1018.2 |
| 20260901041608 | 64 | 121 | 0.0 | 0.0 | 0.00 | 0.00 | 0.00 | 88 | 1018.2 |
| 20260901041051 | 64 | 120 | 0.0 | 2.0 | 0.00 | 0.00 | 0.00 | 87 | 1018.2 |
| 20260901040551 | 64 | 120 | 0.0 | 2.0 | 0.00 | 0.00 | 0.00 | 87 | 1018.2 |
| 20260901040054 | 64 | 120 | 0.0 | 2.0 | 0.00 | 0.00 | 0.00 | 87 | 1018.1 |
| 20260901035550 | 64 | 121 | 0.0 | 2.0 | 0.00 | 0.00 | 0.00 | 87 | 1018.1 |
| 20260901035049 | 64 | 118 | 0.0 | 2.0 | 0.00 | 0.00 | 0.00 | 87 | 1018.0 |
| 20260901034548 | 64 | 118 | 0.0 | 3.0 | 0.00 | 0.00 | 0.00 | 87 | 1018.0 |
| 20260901034053 | 64 | 118 | 0.0 | 3.0 | 0.00 | 0.00 | 0.00 | 87 | 1018.1 |
| 20260901033549 | 64 | 117 | 0.0 | 0.0 | 0.00 | 0.00 | 0.00 | 87 | 1018.1 |
| 20260901033048 | 64 | 118 | 0.0 | 2.0 | 0.00 | 0.00 | 0.00 | 87 | 1018.0 |
| 20260901032548 | 64 | 118 | 0.0 | 2.0 | 0.00 | 0.00 | 0.00 | 87 | 1018.1 |
| 20260901032048 | 63 | 118 | 0.0 | 1.0 | 0.00 | 0.00 | 0.00 | 87 | 1018.2 |
| 20260901031551 | 63 | 118 | 0.0 | 3.0 | 0.00 | 0.00 | 0.00 | 87 | 1018.2 |
| 20260901031050 | 63 | 118 | 0.0 | 3.0 | 0.00 | 0.00 | 0.00 | 87 | 1018.2 |
| 20260901030547 | 63 | 117 | 0.0 | 0.0 | 0.00 | 0.00 | 0.00 | 86 | 1018.2 |
| 20260901030047 | 63 | 117 | 0.0 | 0.0 | 0.00 | 0.00 | 0.00 | 86 | 1018.1 |
| 20260901025548 | 62 | 117 | 0.0 | 0.0 | 0.00 | 0.00 | 0.00 | 86 | 1018.1 |
| 20260901025049 | 62 | 117 | 0.0 | 0.0 | 0.00 | 0.00 | 0.00 | 86 | 1018.0 |
| 20260901024550 | 62 | 117 | 0.0 | 0.0 | 0.00 | 0.00 | 0.00 | 86 | 1018.0 |
| 20260901024047 | 62 | 117 | 0.0 | 0.0 | 0.00 | 0.00 | 0.00 | 85 | 1018.0 |
| 20260901023547 | 62 | 117 | 0.0 | 0.0 | 0.00 | 0.00 | 0.00 | 85 | 1017.9 |
| 20260901023046 | 62 | 117 | 0.0 | 0.0 | 0.00 | 0.00 | 0.00 | 85 | 1018.0 |
| 20260901022546 | 62 | 117 | 0.0 | 0.0 | 0.00 | 0.00 | 0.00 | 85 | 1018.1 |
| 20260901022046 | 63 | 117 | 0.0 | 0.0 | 0.00 | 0.00 | 0.00 | 84 | 1018.1 |
| 20260901021552 | 63 | 117 | 0.0 | 0.0 | 0.00 | 0.00 | 0.00 | 84 | 1018.2 |
| 20260901021046 | 63 | 117 | 0.0 | 0.0 | 0.00 | 0.00 | 0.00 | 84 | 1018.2 |
| 20260901020546 | 63 | 117 | 0.0 | 0.0 | 0.00 | 0.00 | 0.00 | 83 | 1018.2 |
| 20260901020053 | 63 | 117 | 0.0 | 0.0 | 0.00 | 0.00 | 0.00 | 83 | 1018.1 |
| 20260901015545 | 63 | 117 | 0.0 | 0.0 | 0.00 | 0.00 | 0.00 | 83 | 1018.1 |
| 20260901015045 | 63 | 117 | 0.0 | 0.0 | 0.00 | 0.00 | 0.00 | 83 | 1018.2 |
| 20260901014545 | 63 | 117 | 0.0 | 0.0 | 0.00 | 0.00 | 0.00 | 83 | 1018.2 |
| 20260901014045 | 63 | 117 | 0.0 | 0.0 | 0.00 | 0.00 | 0.00 | 83 | 1018.3 |
| 20260901013544 | 64 | 118 | 0.0 | 0.0 | 0.00 | 0.00 | 0.00 | 82 | 1018.4 |
| 20260901013045 | 64 | 117 | 0.0 | 0.0 | 0.00 | 0.00 | 0.00 | 82 | 1018.4 |
| 20260901012544 | 64 | 117 | 0.0 | 0.0 | 0.00 | 0.00 | 0.00 | 81 | 1018.4 |
| 20260901012044 | 64 | 117 | 0.0 | 0.0 | 0.00 | 0.00 | 0.00 | 81 | 1018.4 |
| 20260901011545 | 64 | 117 | 0.0 | 0.0 | 0.00 | 0.00 | 0.00 | 81 | 1018.4 |
| 20260901011046 | 64 | 117 | 0.0 | 0.0 | 0.00 | 0.00 | 0.00 | 80 | 1018.4 |
| 20260901010544 | 64 | 117 | 0.0 | 0.0 | 0.00 | 0.00 | 0.00 | 80 | 1018.3 |
| 20260901010045 | 65 | 117 | 0.0 | 0.0 | 0.00 | 0.00 | 0.00 | 79 | 1018.3 |
| 20260901005544 | 65 | 116 | 0.0 | 0.0 | 0.00 | 0.00 | 0.00 | 78 | 1018.4 |
| 20260901005044 | 65 | 117 | 0.0 | 0.0 | 0.00 | 0.00 | 0.00 | 78 | 1018.4 |
| 20260901004550 | 66 | 117 | 0.0 | 0.0 | 0.00 | 0.00 | 0.00 | 77 | 1018.4 |
| 20260901004047 | 66 | 118 | 0.0 | 2.0 | 0.00 | 0.00 | 0.00 | 77 | 1018.3 |
| 20260901003543 | 66 | 117 | 0.0 | 2.0 | 0.00 | 0.00 | 0.00 | 76 | 1018.4 |
| 20260901003043 | 66 | 117 | 0.0 | 0.0 | 0.00 | 0.00 | 0.00 | 76 | 1018.3 |
| 20260901002547 | 66 | 117 | 0.0 | 0.0 | 0.00 | 0.00 | 0.00 | 75 | 1018.3 |
| 20260901002043 | 66 | 117 | 0.0 | 1.0 | 0.00 | 0.00 | 0.00 | 75 | 1018.4 |
| 20260901001542 | 67 | 117 | 0.0 | 2.0 | 0.00 | 0.00 | 0.00 | 75 | 1018.3 |
| 20260901001043 | 67 | 117 | 0.0 | 3.0 | 0.00 | 0.00 | 0.00 | 74 | 1018.2 |
| 20260901000542 | 67 | 117 | 1.0 | 3.0 | 0.00 | 0.00 | 0.00 | 74 | 1018.2 |
| 20260901000050 | 67 | 117 | 0.0 | 2.0 | 0.00 | 0.00 | 0.00 | 73 | 1018.1 |
| 20260831235544 | 67 | 118 | 0.0 | 3.0 | 0.00 | 0.00 | 0.00 | 73 | 1018.1 |
| 20260831235042 | 68 | 117 | 1.0 | 3.0 | 0.00 | 0.00 | 0.00 | 72 | 1018.1 |
| 20260831234545 | 68 | 118 | 0.0 | 2.0 | 0.00 | 0.00 | 0.00 | 72 | 1018.2 |
| 20260831234043 | 68 | 117 | 0.0 | 2.0 | 0.00 | 0.00 | 0.00 | 71 | 1018.2 |
| 20260831233544 | 69 | 117 | 0.0 | 2.0 | 0.00 | 0.00 | 0.00 | 71 | 1018.1 |
| 20260831233041 | 69 | 118 | 0.0 | 3.0 | 0.00 | 0.00 | 0.00 | 70 | 1018.3 |
| 20260831232544 | 70 | 118 | 0.0 | 4.0 | 0.00 | 0.00 | 0.00 | 69 | 1018.4 |
| 20260831232041 | 70 | 118 | 1.0 | 4.0 | 0.00 | 0.00 | 0.00 | 69 | 1018.4 |
| 20260831231546 | 71 | 49 | 0.0 | 5.0 | 0.00 | 0.00 | 0.00 | 68 | 1018.4 |
| 20260831231041 | 71 | 115 | 1.0 | 4.0 | 0.00 | 0.00 | 0.00 | 67 | 1018.5 |
| 20260831230541 | 72 | 133 | 1.0 | 4.0 | 0.00 | 0.00 | 0.00 | 66 | 1018.5 |
| 20260831230042 | 72 | 134 | 1.0 | 5.0 | 0.00 | 0.00 | 0.00 | 65 | 1018.6 |
| 20260831225540 | 73 | 53 | 1.0 | 5.0 | 0.00 | 0.00 | 0.00 | 64 | 1018.6 |
| 20260831225043 | 74 | 93 | 0.0 | 4.0 | 0.00 | 0.00 | 0.00 | 63 | 1018.6 |
| 20260831224540 | 75 | 101 | 0.0 | 3.0 | 0.00 | 0.00 | 0.00 | 63 | 1018.6 |
| 20260831224040 | 75 | 98 | 1.0 | 3.0 | 0.00 | 0.00 | 0.00 | 61 | 1018.6 |
| 20260831223542 | 76 | 98 | 0.0 | 3.0 | 0.00 | 0.00 | 0.00 | 60 | 1018.6 |
| 20260831223040 | 76 | 215 | 0.0 | 2.0 | 0.00 | 0.00 | 0.00 | 60 | 1018.6 |
| 20260831222540 | 77 | 216 | 0.0 | 4.0 | 0.00 | 0.00 | 0.00 | 59 | 1018.6 |
| 20260831222039 | 77 | 216 | 1.0 | 5.0 | 0.00 | 0.00 | 0.00 | 59 | 1018.6 |
| 20260831221540 | 77 | 258 | 1.0 | 4.0 | 0.00 | 0.00 | 0.00 | 58 | 1018.5 |
| 20260831221039 | 78 | 278 | 0.0 | 5.0 | 0.00 | 0.00 | 0.00 | 57 | 1018.5 |
| 20260831220539 | 78 | 233 | 2.0 | 5.0 | 0.00 | 0.00 | 0.00 | 54 | 1018.4 |
| 20260831220039 | 79 | 233 | 0.0 | 6.0 | 0.00 | 0.00 | 0.00 | 55 | 1018.4 |
| 20260831215538 | 79 | 233 | 1.0 | 6.0 | 0.00 | 0.00 | 0.00 | 54 | 1018.4 |
| 20260831215039 | 80 | 210 | 1.0 | 5.0 | 0.00 | 0.00 | 0.00 | 54 | 1018.4 |
| 20260831214538 | 79 | 189 | 2.0 | 5.0 | 0.00 | 0.00 | 0.00 | 52 | 1018.4 |
| 20260831214038 | 80 | 259 | 1.0 | 6.0 | 0.00 | 0.00 | 0.00 | 52 | 1018.5 |
| 20260831213537 | 81 | 208 | 1.0 | 3.0 | 0.00 | 0.00 | 0.00 | 53 | 1018.5 |
| 20260831213037 | 79 | 208 | 1.0 | 4.0 | 0.00 | 0.00 | 0.00 | 54 | 1018.4 |
| 20260831212537 | 79 | 206 | 1.0 | 5.0 | 0.00 | 0.00 | 0.00 | 57 | 1018.5 |
| 20260831212040 | 78 | 195 | 2.0 | 5.0 | 0.00 | 0.00 | 0.00 | 54 | 1018.5 |
| 20260831211537 | 78 | 212 | 1.0 | 4.0 | 0.00 | 0.00 | 0.00 | 54 | 1018.6 |
| 20260831211037 | 77 | 217 | 1.0 | 5.0 | 0.00 | 0.00 | 0.00 | 57 | 1018.6 |
| 20260831210538 | 76 | 220 | 2.0 | 5.0 | 0.00 | 0.00 | 0.00 | 55 | 1018.7 |
| 20260831210040 | 77 | 199 | 1.0 | 6.0 | 0.00 | 0.00 | 0.00 | 55 | 1018.7 |
| 20260831205539 | 78 | 269 | 2.0 | 6.0 | 0.00 | 0.00 | 0.00 | 53 | 1018.8 |
| 20260831205036 | 79 | 264 | 1.0 | 7.0 | 0.00 | 0.00 | 0.00 | 52 | 1018.7 |
| 20260831204538 | 78 | 217 | 1.0 | 7.0 | 0.00 | 0.00 | 0.00 | 51 | 1018.8 |
| 20260831204036 | 78 | 217 | 2.0 | 5.0 | 0.00 | 0.00 | 0.00 | 53 | 1018.8 |
| 20260831203535 | 78 | 212 | 1.0 | 4.0 | 0.00 | 0.00 | 0.00 | 52 | 1018.7 |
| 20260831203035 | 79 | 212 | 0.0 | 7.0 | 0.00 | 0.00 | 0.00 | 53 | 1018.7 |
| 20260831202535 | 79 | 256 | 1.0 | 4.0 | 0.00 | 0.00 | 0.00 | 50 | 1018.8 |
| 20260831202039 | 79 | 272 | 1.0 | 7.0 | 0.00 | 0.00 | 0.00 | 49 | 1018.6 |
| 20260831201535 | 81 | 280 | 3.0 | 7.0 | 0.00 | 0.00 | 0.00 | 47 | 1018.7 |
| 20260831201039 | 82 | 276 | 3.0 | 7.0 | 0.00 | 0.00 | 0.00 | 45 | 1018.8 |
| 20260831200535 | 82 | 235 | 2.0 | 5.0 | 0.00 | 0.00 | 0.00 | 45 | 1018.7 |
| 20260831200037 | 84 | 220 | 1.0 | 3.0 | 0.00 | 0.00 | 0.00 | 43 | 1018.7 |
| 20260831195534 | 83 | 220 | 2.0 | 3.0 | 0.00 | 0.00 | 0.00 | 43 | 1018.8 |
| 20260831195033 | 81 | 220 | 1.0 | 4.0 | 0.00 | 0.00 | 0.00 | 45 | 1018.8 |
| 20260831194533 | 80 | 217 | 1.0 | 8.0 | 0.00 | 0.00 | 0.00 | 45 | 1018.8 |
| 20260831194033 | 80 | 284 | 4.0 | 10.0 | 0.00 | 0.00 | 0.00 | 46 | 1018.8 |
| 20260831193531 | 81 | 231 | 5.0 | 10.0 | 0.00 | 0.00 | 0.00 | 46 | 1018.8 |
| 20260831193031 | 81 | 259 | 2.0 | 8.0 | 0.00 | 0.00 | 0.00 | 44 | 1018.8 |
| 20260831192533 | 81 | 145 | 1.0 | 6.0 | 0.00 | 0.00 | 0.00 | 46 | 1018.8 |
| 20260831192029 | 80 | 183 | 1.0 | 8.0 | 0.00 | 0.00 | 0.00 | 47 | 1018.9 |
| 20260831191530 | 80 | 185 | 3.0 | 8.0 | 0.00 | 0.00 | 0.00 | 46 | 1019.0 |
| 20260831191029 | 79 | 167 | 1.0 | 7.0 | 0.00 | 0.00 | 0.00 | 47 | 1019.1 |
| 20260831190529 | 81 | 224 | 4.0 | 7.0 | 0.00 | 0.00 | 0.00 | 45 | 1019.2 |
| 20260831190029 | 82 | 172 | 1.0 | 7.0 | 0.00 | 0.00 | 0.00 | 44 | 1019.1 |
| 20260831185528 | 81 | 283 | 2.0 | 5.0 | 0.00 | 0.00 | 0.00 | 46 | 1019.2 |
| 20260831185028 | 79 | 290 | 2.0 | 10.0 | 0.00 | 0.00 | 0.00 | 48 | 1019.3 |
| 20260831184527 | 78 | 232 | 5.0 | 10.0 | 0.00 | 0.00 | 0.00 | 47 | 1019.4 |
| 20260831184027 | 79 | 243 | 1.0 | 8.0 | 0.00 | 0.00 | 0.00 | 46 | 1019.4 |
| 20260831183527 | 82 | 228 | 3.0 | 9.0 | 0.00 | 0.00 | 0.00 | 46 | 1019.4 |
| 20260831183027 | 81 | 288 | 3.0 | 9.0 | 0.00 | 0.00 | 0.00 | 46 | 1019.3 |
| 20260831182526 | 79 | 241 | 2.0 | 8.0 | 0.00 | 0.00 | 0.00 | 47 | 1019.5 |
| 20260831182026 | 80 | 202 | 3.0 | 9.0 | 0.00 | 0.00 | 0.00 | 48 | 1019.5 |
| 20260831181526 | 82 | 337 | 3.0 | 10.0 | 0.00 | 0.00 | 0.00 | 45 | 1019.5 |
| 20260831181024 | 82 | 287 | 2.0 | 10.0 | 0.00 | 0.00 | 0.00 | 45 | 1019.5 |
| 20260831180523 | 79 | 131 | 1.0 | 7.0 | 0.00 | 0.00 | 0.00 | 45 | 1019.5 |
| 20260831180025 | 79 | 306 | 3.0 | 7.0 | 0.00 | 0.00 | 0.00 | 47 | 1019.6 |
| 20260831175523 | 76 | 222 | 3.0 | 7.0 | 0.00 | 0.00 | 0.00 | 49 | 1019.6 |
| 20260831175022 | 79 | 207 | 2.0 | 5.0 | 0.00 | 0.00 | 0.00 | 46 | 1019.6 |
| 20260831174522 | 80 | 299 | 2.0 | 9.0 | 0.00 | 0.00 | 0.00 | 46 | 1019.6 |
| 20260831174021 | 79 | 272 | 4.0 | 8.0 | 0.00 | 0.00 | 0.00 | 50 | 1019.6 |
| 20260831173521 | 77 | 152 | 2.0 | 4.0 | 0.00 | 0.00 | 0.00 | 55 | 1019.8 |
| 20260831173025 | 76 | 226 | 2.0 | 4.0 | 0.00 | 0.00 | 0.00 | 54 | 1019.8 |
| 20260831172519 | 78 | 228 | 0.0 | 5.0 | 0.00 | 0.00 | 0.00 | 52 | 1020.0 |
| 20260831172019 | 78 | 228 | 1.0 | 5.0 | 0.00 | 0.00 | 0.00 | 51 | 1020.0 |
| 20260831171520 | 78 | 229 | 1.0 | 5.0 | 0.00 | 0.00 | 0.00 | 52 | 1020.0 |
| 20260831171019 | 76 | 228 | 2.0 | 8.0 | 0.00 | 0.00 | 0.00 | 51 | 1020.1 |
| 20260831170519 | 77 | 212 | 3.0 | 8.0 | 0.00 | 0.00 | 0.00 | 50 | 1020.2 |
| 20260831170019 | 76 | 345 | 3.0 | 7.0 | 0.00 | 0.00 | 0.00 | 54 | 1020.2 |
| 20260831165519 | 76 | 223 | 3.0 | 7.0 | 0.00 | 0.00 | 0.00 | 53 | 1020.3 |
| 20260831165017 | 76 | 275 | 3.0 | 7.0 | 0.00 | 0.00 | 0.00 | 54 | 1020.4 |
| 20260831164517 | 77 | 226 | 2.0 | 7.0 | 0.00 | 0.00 | 0.00 | 49 | 1020.4 |
| 20260831164017 | 79 | 121 | 1.0 | 5.0 | 0.00 | 0.00 | 0.00 | 49 | 1020.4 |
| 20260831163516 | 78 | 223 | 2.0 | 5.0 | 0.00 | 0.00 | 0.00 | 49 | 1020.4 |
| 20260831163022 | 78 | 107 | 2.0 | 4.0 | 0.00 | 0.00 | 0.00 | 50 | 1020.3 |
| 20260831162518 | 79 | 81 | 0.0 | 4.0 | 0.00 | 0.00 | 0.00 | 50 | 1020.4 |
| 20260831162014 | 77 | 69 | 1.0 | 8.0 | 0.00 | 0.00 | 0.00 | 51 | 1020.5 |
| 20260831161526 | 77 | 70 | 4.0 | 8.0 | 0.00 | 0.00 | 0.00 | 48 | 1020.4 |
| 20260831161012 | 77 | 324 | 2.0 | 4.0 | 0.00 | 0.00 | 0.00 | 50 | 1020.5 |
| 20260831160510 | 77 | 83 | 2.0 | 4.0 | 0.00 | 0.00 | 0.00 | 49 | 1020.6 |
| 20260831160015 | 75 | 236 | 1.0 | 6.0 | 0.00 | 0.00 | 0.00 | 51 | 1020.6 |
| 20260831155509 | 73 | 236 | 1.0 | 6.0 | 0.00 | 0.00 | 0.00 | 54 | 1020.7 |
| 20260831155009 | 74 | 204 | 2.0 | 5.0 | 0.00 | 0.00 | 0.00 | 53 | 1020.6 |
| 20260831154508 | 74 | 219 | 1.0 | 4.0 | 0.00 | 0.00 | 0.00 | 52 | 1020.5 |
| 20260831154013 | 73 | 182 | 1.0 | 8.0 | 0.00 | 0.00 | 0.00 | 53 | 1020.6 |
| 20260831153508 | 75 | 294 | 4.0 | 8.0 | 0.00 | 0.00 | 0.00 | 56 | 1020.6 |
| 20260831153006 | 77 | 244 | 2.0 | 5.0 | 0.00 | 0.00 | 0.00 | 52 | 1020.7 |
| 20260831152506 | 76 | 243 | 1.0 | 4.0 | 0.00 | 0.00 | 0.00 | 54 | 1020.7 |
| 20260831152004 | 75 | 335 | 1.0 | 5.0 | 0.00 | 0.00 | 0.00 | 55 | 1020.8 |
| 20260831151503 | 74 | 289 | 1.0 | 5.0 | 0.00 | 0.00 | 0.00 | 53 | 1020.9 |
| 20260831151002 | 73 | 106 | 0.0 | 4.0 | 0.00 | 0.00 | 0.00 | 56 | 1020.9 |
| 20260831150500 | 72 | 210 | 0.0 | 6.0 | 0.00 | 0.00 | 0.00 | 56 | 1021.0 |
| 20260831150100 | 73 | 210 | 4.0 | 6.0 | 0.00 | 0.00 | 0.00 | 54 | 1021.1 |
| 20260831145558 | 74 | 270 | 1.0 | 4.0 | 0.00 | 0.00 | 0.00 | 55 | 1021.0 |
| 20260831145057 | 74 | 278 | 2.0 | 5.0 | 0.00 | 0.00 | 0.00 | 55 | 1021.2 |
| 20260831144603 | 74 | 285 | 1.0 | 6.0 | 0.00 | 0.00 | 0.00 | 55 | 1021.1 |
| 20260831144055 | 74 | 319 | 1.0 | 5.0 | 0.00 | 0.00 | 0.00 | 54 | 1021.2 |
| 20260831143553 | 74 | 319 | 3.0 | 5.0 | 0.00 | 0.00 | 0.00 | 57 | 1021.1 |
| 20260831143055 | 74 | 25 | 1.0 | 4.0 | 0.00 | 0.00 | 0.00 | 57 | 1021.1 |
| 20260831142551 | 74 | 72 | 0.0 | 4.0 | 0.00 | 0.00 | 0.00 | 56 | 1021.2 |
| 20260831142048 | 74 | 72 | 1.0 | 4.0 | 0.00 | 0.00 | 0.00 | 55 | 1021.3 |
| 20260831141548 | 74 | 91 | 1.0 | 4.0 | 0.00 | 0.00 | 0.00 | 58 | 1021.2 |
| 20260831141046 | 73 | 91 | 1.0 | 5.0 | 0.00 | 0.00 | 0.00 | 58 | 1021.2 |
| 20260831140545 | 73 | 218 | 2.0 | 5.0 | 0.00 | 0.00 | 0.00 | 57 | 1021.2 |
| 20260831140044 | 73 | 58 | 1.0 | 4.0 | 0.00 | 0.00 | 0.00 | 58 | 1021.2 |
| 20260831135543 | 72 | 58 | 0.0 | 4.0 | 0.00 | 0.00 | 0.00 | 59 | 1021.2 |
| 20260831135040 | 71 | 58 | 0.0 | 3.0 | 0.00 | 0.00 | 0.00 | 62 | 1021.1 |
| 20260831134540 | 70 | 58 | 0.0 | 5.0 | 0.00 | 0.00 | 0.00 | 61 | 1021.2 |
| 20260831134038 | 70 | 59 | 2.0 | 5.0 | 0.00 | 0.00 | 0.00 | 63 | 1021.2 |
| 20260831133539 | 70 | 55 | 2.0 | 4.0 | 0.00 | 0.00 | 0.00 | 62 | 1021.2 |
| 20260831133037 | 70 | 55 | 1.0 | 5.0 | 0.00 | 0.00 | 0.00 | 63 | 1021.1 |
| 20260831132534 | 69 | 342 | 0.0 | 5.0 | 0.00 | 0.00 | 0.00 | 64 | 1021.1 |